SUR4697 SACO-SAEZ

Flight info

Callsign SUR4697
Flight time 0h 51m
Altitude 37000
Route UTRAX1C UTRAX UW24 SNT SNT7X
Aircraft A359/H-SDE2E3GHIJ3J4J5LM1ORWXY/LB1D1

Departure

Time 2026-04-27 22:55
Airport Ingeniero Aeronáutico Ambrosio L.V. Taravella International Airport (SACO)

Arrival

Time 2026-04-27 23:47
Airport Ezeiza International Airport - Ministro Pistarini (SAEZ)
Time Latitude Longitude Altitude Speed Heading
2026-04-27 22:39 -31.31264 -64.21172 1619 ft 0 kts 271°
2026-04-27 22:45 -31.31264 -64.21164 1623 ft 3 kts 271°
2026-04-27 22:45 -31.31265 -64.21142 1619 ft 3 kts 260°
2026-04-27 22:46 -31.31258 -64.21123 1622 ft 3 kts 224°
2026-04-27 22:46 -31.31243 -64.21112 1623 ft 1 kts 188°
2026-04-27 22:46 -31.31239 -64.21111 1622 ft 0 kts 181°
2026-04-27 22:50 -31.31291 -64.21108 1621 ft 10 kts 173°
2026-04-27 22:50 -31.31364 -64.21080 1624 ft 12 kts 152°
2026-04-27 22:50 -31.31438 -64.21019 1625 ft 14 kts 135°
2026-04-27 22:50 -31.31465 -64.20916 1620 ft 14 kts 96°
2026-04-27 22:51 -31.31504 -64.20835 1625 ft 8 kts 136°
2026-04-27 22:51 -31.31539 -64.20822 1629 ft 6 kts 165°
2026-04-27 22:51 -31.31577 -64.20819 1626 ft 6 kts 176°
2026-04-27 22:51 -31.31628 -64.20817 1623 ft 8 kts 181°
2026-04-27 22:52 -31.31694 -64.20817 1627 ft 11 kts 180°
2026-04-27 22:52 -31.31790 -64.20819 1629 ft 21 kts 180°
2026-04-27 22:52 -31.31992 -64.20820 1623 ft 33 kts 180°
2026-04-27 22:52 -31.32222 -64.20819 1626 ft 34 kts 180°
2026-04-27 22:53 -31.32422 -64.20836 1626 ft 22 kts 156°
2026-04-27 22:53 -31.32436 -64.20797 1624 ft 1 kts 50°
2026-04-27 22:53 -31.32412 -64.20789 1624 ft 15 kts 18°
2026-04-27 22:53 -31.32347 -64.20764 1625 ft 0 kts 18°
2026-04-27 22:54 -31.32343 -64.20759 1624 ft 0 kts 34°
2026-04-27 22:54 -31.32151 -64.20562 1625 ft 72 kts 44°
2026-04-27 22:55 -31.31633 -64.19975 1625 ft 133 kts 44°
2026-04-27 22:55 -31.30898 -64.19132 2058 ft 142 kts 46°
2026-04-27 22:55 -31.30332 -64.18424 2997 ft 104 kts 57°
2026-04-27 22:55 -31.29831 -64.17730 3060 ft 128 kts 61°
2026-04-27 22:56 -31.29201 -64.16651 2394 ft 211 kts 62°
2026-04-27 22:56 -31.29045 -64.14827 2614 ft 237 kts 114°
2026-04-27 22:56 -31.29825 -64.13174 3806 ft 227 kts 132°
2026-04-27 22:56 -31.30960 -64.11997 4962 ft 215 kts 150°
2026-04-27 22:57 -31.32275 -64.11264 6061 ft 204 kts 166°
2026-04-27 22:57 -31.33582 -64.10870 7069 ft 187 kts 160°
2026-04-27 22:57 -31.34416 -64.09715 7794 ft 195 kts 114°
2026-04-27 22:57 -31.34933 -64.08190 8142 ft 219 kts 104°
2026-04-27 22:58 -31.34830 -64.06312 8473 ft 245 kts 80°
2026-04-27 22:58 -31.34957 -64.04251 8774 ft 267 kts 115°
2026-04-27 22:58 -31.36090 -64.02486 9178 ft 279 kts 147°
2026-04-27 22:58 -31.37686 -64.01097 9837 ft 292 kts 148°
2026-04-27 22:59 -31.39297 -63.99547 10466 ft 308 kts 144°
2026-04-27 22:59 -31.40924 -63.97765 10871 ft 332 kts 141°
2026-04-27 22:59 -31.42581 -63.95796 11286 ft 352 kts 139°
2026-04-27 22:59 -31.44298 -63.93666 11891 ft 364 kts 138°
2026-04-27 23:00 -31.47804 -63.89210 13387 ft 378 kts 138°
2026-04-27 23:00 -31.49594 -63.86921 14140 ft 383 kts 138°
2026-04-27 23:00 -31.51401 -63.84604 14837 ft 388 kts 138°
2026-04-27 23:01 -31.53235 -63.82249 15554 ft 393 kts 138°
2026-04-27 23:01 -31.55090 -63.79865 16305 ft 397 kts 138°
2026-04-27 23:01 -31.56964 -63.77454 17069 ft 402 kts 138°
2026-04-27 23:01 -31.58856 -63.75017 17790 ft 406 kts 139°
2026-04-27 23:02 -31.60748 -63.72581 18496 ft 411 kts 139°
2026-04-27 23:02 -31.62680 -63.70090 19125 ft 416 kts 139°
2026-04-27 23:02 -31.64644 -63.67557 19767 ft 421 kts 139°
2026-04-27 23:02 -31.66626 -63.64998 20435 ft 426 kts 139°
2026-04-27 23:03 -31.68632 -63.62406 21095 ft 431 kts 139°
2026-04-27 23:03 -31.70659 -63.59786 21751 ft 436 kts 139°
2026-04-27 23:03 -31.72715 -63.57127 22416 ft 440 kts 139°
2026-04-27 23:03 -31.74769 -63.54468 23084 ft 445 kts 139°
2026-04-27 23:04 -31.76864 -63.51754 23726 ft 450 kts 139°
2026-04-27 23:04 -31.78980 -63.49011 24270 ft 454 kts 139°
2026-04-27 23:04 -31.81093 -63.46269 24813 ft 458 kts 139°
2026-04-27 23:04 -31.83245 -63.43475 25375 ft 462 kts 139°
2026-04-27 23:05 -31.85415 -63.40655 25932 ft 466 kts 139°
2026-04-27 23:05 -31.87605 -63.37807 26480 ft 470 kts 139°
2026-04-27 23:05 -31.89804 -63.34931 27019 ft 475 kts 138°
2026-04-27 23:05 -31.91944 -63.31921 27565 ft 482 kts 135°
2026-04-27 23:06 -31.94027 -63.28801 28092 ft 487 kts 134°
2026-04-27 23:06 -31.96080 -63.25654 28606 ft 491 kts 134°
2026-04-27 23:06 -31.98172 -63.22445 29109 ft 495 kts 134°
2026-04-27 23:06 -32.00290 -63.19221 29616 ft 499 kts 135°
2026-04-27 23:07 -32.02441 -63.15978 30117 ft 502 kts 135°
2026-04-27 23:07 -32.04608 -63.12732 30503 ft 506 kts 135°
2026-04-27 23:07 -32.06800 -63.09461 30901 ft 510 kts 135°
2026-04-27 23:07 -32.08989 -63.06199 31277 ft 513 kts 135°
2026-04-27 23:08 -32.11208 -63.02889 31670 ft 517 kts 135°
2026-04-27 23:08 -32.13450 -62.99542 32039 ft 520 kts 135°
2026-04-27 23:08 -32.15701 -62.96178 32391 ft 523 kts 135°
2026-04-27 23:08 -32.17963 -62.92792 32744 ft 526 kts 135°
2026-04-27 23:09 -32.20241 -62.89378 33084 ft 529 kts 135°
2026-04-27 23:09 -32.22501 -62.85987 33427 ft 532 kts 135°
2026-04-27 23:09 -32.24800 -62.82535 33762 ft 535 kts 135°
2026-04-27 23:09 -32.27110 -62.79063 34084 ft 537 kts 135°
2026-04-27 23:10 -32.28643 -62.76757 34261 ft 539 kts 135°
2026-04-27 23:10 -32.30962 -62.73265 34612 ft 539 kts 135°
2026-04-27 23:10 -32.33278 -62.69773 34940 ft 540 kts 135°
2026-04-27 23:10 -32.35616 -62.66246 35239 ft 541 kts 135°
2026-04-27 23:11 -32.37910 -62.62782 35555 ft 542 kts 135°
2026-04-27 23:11 -32.40245 -62.59254 35878 ft 542 kts 135°
2026-04-27 23:11 -32.42575 -62.55731 36179 ft 543 kts 135°
2026-04-27 23:11 -32.44907 -62.52202 36488 ft 544 kts 135°
2026-04-27 23:12 -32.47247 -62.48658 36762 ft 545 kts 135°
2026-04-27 23:12 -32.49555 -62.45159 37038 ft 546 kts 135°
2026-04-27 23:12 -32.51893 -62.41610 37198 ft 546 kts 135°
2026-04-27 23:12 -32.54237 -62.38049 37358 ft 546 kts 135°
2026-04-27 23:13 -32.56575 -62.34492 37518 ft 546 kts 135°
2026-04-27 23:13 -32.58914 -62.30931 37761 ft 546 kts 135°
2026-04-27 23:13 -32.61253 -62.27368 38027 ft 547 kts 135°
2026-04-27 23:13 -32.63562 -62.23847 38295 ft 548 kts 135°
2026-04-27 23:14 -32.65910 -62.20264 38573 ft 548 kts 135°
2026-04-27 23:14 -32.68251 -62.16688 38827 ft 549 kts 135°
2026-04-27 23:14 -32.70570 -62.13081 39036 ft 551 kts 133°
2026-04-27 23:14 -32.72803 -62.09355 39108 ft 554 kts 131°
2026-04-27 23:15 -32.77113 -62.01796 39110 ft 554 kts 131°
2026-04-27 23:15 -32.81442 -61.94206 39101 ft 553 kts 131°
2026-04-27 23:16 -32.85804 -61.86664 39108 ft 553 kts 131°
2026-04-27 23:16 -32.90162 -61.79163 39109 ft 553 kts 131°
2026-04-27 23:17 -32.94537 -61.71626 39109 ft 553 kts 131°
2026-04-27 23:17 -32.98908 -61.64072 39108 ft 553 kts 131°
2026-04-27 23:18 -33.03247 -61.56556 39106 ft 552 kts 131°
2026-04-27 23:18 -33.07608 -61.48987 39110 ft 552 kts 131°
2026-04-27 23:19 -33.11941 -61.41452 39110 ft 552 kts 131°
2026-04-27 23:19 -33.16291 -61.33871 39108 ft 552 kts 131°
2026-04-27 23:20 -33.20631 -61.26293 39109 ft 552 kts 131°
2026-04-27 23:20 -33.24936 -61.18759 39109 ft 552 kts 131°
2026-04-27 23:21 -33.29283 -61.11138 39107 ft 552 kts 131°
2026-04-27 23:21 -33.33570 -61.03583 39099 ft 552 kts 130°
2026-04-27 23:22 -33.37876 -60.95949 39108 ft 552 kts 130°
2026-04-27 23:22 -33.42159 -60.88319 39111 ft 552 kts 130°
2026-04-27 23:23 -33.46439 -60.80670 38848 ft 549 kts 130°
2026-04-27 23:23 -33.48533 -60.76923 38231 ft 547 kts 130°
2026-04-27 23:23 -33.50648 -60.73137 37555 ft 546 kts 130°
2026-04-27 23:24 -33.52764 -60.69351 36895 ft 545 kts 130°
2026-04-27 23:24 -33.54917 -60.65631 36219 ft 540 kts 135°
2026-04-27 23:24 -33.57280 -60.62124 35565 ft 536 kts 137°
2026-04-27 23:24 -33.59675 -60.58698 34900 ft 536 kts 137°
2026-04-27 23:25 -33.62083 -60.55269 34233 ft 535 kts 137°
2026-04-27 23:25 -33.64458 -60.51891 33484 ft 535 kts 137°
2026-04-27 23:25 -33.66861 -60.48472 32699 ft 534 kts 137°
2026-04-27 23:25 -33.69264 -60.45051 31914 ft 534 kts 137°
2026-04-27 23:26 -33.71635 -60.41673 31225 ft 531 kts 137°
2026-04-27 23:26 -33.74008 -60.38286 30649 ft 527 kts 137°
2026-04-27 23:26 -33.76357 -60.34931 30090 ft 522 kts 138°
2026-04-27 23:26 -33.78694 -60.31591 29423 ft 518 kts 138°
2026-04-27 23:27 -33.81018 -60.28270 28759 ft 514 kts 138°
2026-04-27 23:27 -33.83282 -60.25032 28154 ft 510 kts 138°
2026-04-27 23:27 -33.85557 -60.21774 27544 ft 506 kts 138°
2026-04-27 23:27 -33.87809 -60.18547 26948 ft 502 kts 138°
2026-04-27 23:28 -33.90056 -60.15324 26361 ft 498 kts 138°
2026-04-27 23:28 -33.92280 -60.12130 25777 ft 494 kts 138°
2026-04-27 23:28 -33.94454 -60.09006 25218 ft 490 kts 138°
2026-04-27 23:28 -33.96639 -60.05863 24664 ft 487 kts 138°
2026-04-27 23:29 -33.98806 -60.02745 24116 ft 483 kts 138°
2026-04-27 23:29 -34.00876 -59.99762 23565 ft 479 kts 138°
2026-04-27 23:29 -34.03012 -59.96682 22939 ft 475 kts 138°
2026-04-27 23:29 -34.05125 -59.93632 22337 ft 471 kts 138°
2026-04-27 23:30 -34.07216 -59.90610 21739 ft 467 kts 138°
2026-04-27 23:30 -34.09260 -59.87655 21166 ft 462 kts 138°
2026-04-27 23:30 -34.11320 -59.84674 20580 ft 458 kts 138°
2026-04-27 23:30 -34.13349 -59.81735 19995 ft 454 kts 138°
2026-04-27 23:31 -34.15371 -59.78807 19424 ft 451 kts 138°
2026-04-27 23:31 -34.17372 -59.75904 18859 ft 447 kts 138°
2026-04-27 23:31 -34.19328 -59.73064 18298 ft 444 kts 138°
2026-04-27 23:31 -34.21296 -59.70207 17695 ft 439 kts 138°
2026-04-27 23:32 -34.23240 -59.67379 17151 ft 433 kts 137°
2026-04-27 23:32 -34.25158 -59.64589 16620 ft 427 kts 137°
2026-04-27 23:32 -34.27046 -59.61839 16094 ft 421 kts 137°
2026-04-27 23:32 -34.28883 -59.59163 15598 ft 415 kts 137°
2026-04-27 23:33 -34.30719 -59.56487 15081 ft 409 kts 137°
2026-04-27 23:33 -34.32519 -59.53858 14802 ft 403 kts 136°
2026-04-27 23:33 -34.34310 -59.51247 14563 ft 402 kts 136°
2026-04-27 23:33 -34.36095 -59.48642 14324 ft 400 kts 136°
2026-04-27 23:34 -34.37863 -59.46056 13995 ft 394 kts 136°
2026-04-27 23:34 -34.39575 -59.43548 13469 ft 388 kts 135°
2026-04-27 23:34 -34.41286 -59.41041 12919 ft 383 kts 135°
2026-04-27 23:34 -34.42974 -59.38567 12372 ft 379 kts 135°
2026-04-27 23:35 -34.44644 -59.36117 11829 ft 374 kts 135°
2026-04-27 23:35 -34.46299 -59.33687 11289 ft 371 kts 135°
2026-04-27 23:35 -34.47931 -59.31291 10780 ft 367 kts 134°
2026-04-27 23:35 -34.49502 -59.28976 10624 ft 351 kts 134°
2026-04-27 23:36 -34.51016 -59.26739 10486 ft 335 kts 135°
2026-04-27 23:36 -34.52470 -59.24598 10262 ft 321 kts 134°
2026-04-27 23:36 -34.53863 -59.22545 10117 ft 309 kts 134°
2026-04-27 23:36 -34.55204 -59.20568 10004 ft 299 kts 134°
2026-04-27 23:37 -34.56535 -59.18611 9798 ft 301 kts 134°
2026-04-27 23:37 -34.57851 -59.16678 9527 ft 300 kts 134°
2026-04-27 23:37 -34.59172 -59.14731 9210 ft 298 kts 134°
2026-04-27 23:37 -34.60487 -59.12791 8884 ft 296 kts 134°
2026-04-27 23:38 -34.61793 -59.10862 8576 ft 294 kts 133°
2026-04-27 23:38 -34.63090 -59.08945 8251 ft 293 kts 133°
2026-04-27 23:38 -34.64367 -59.07058 7944 ft 291 kts 133°
2026-04-27 23:38 -34.65647 -59.05164 7628 ft 289 kts 133°
2026-04-27 23:39 -34.66923 -59.03273 7318 ft 287 kts 133°
2026-04-27 23:39 -34.68186 -59.01403 7019 ft 286 kts 132°
2026-04-27 23:39 -34.69448 -58.99534 6702 ft 284 kts 132°
2026-04-27 23:39 -34.70696 -58.97684 6382 ft 283 kts 132°
2026-04-27 23:40 -34.71937 -58.95842 6122 ft 277 kts 131°
2026-04-27 23:40 -34.73137 -58.94057 5944 ft 267 kts 131°
2026-04-27 23:40 -34.74284 -58.92344 5775 ft 258 kts 130°
2026-04-27 23:40 -34.75519 -58.90828 5590 ft 247 kts 142°
2026-04-27 23:41 -34.76485 -58.89139 5358 ft 245 kts 107°
2026-04-27 23:41 -34.76615 -58.87138 5216 ft 236 kts 89°
2026-04-27 23:41 -34.76668 -58.85188 5081 ft 227 kts 96°
2026-04-27 23:41 -34.76897 -58.83338 5009 ft 214 kts 102°
2026-04-27 23:42 -34.77197 -58.81615 4894 ft 203 kts 103°
2026-04-27 23:42 -34.77496 -58.79973 4727 ft 195 kts 103°
2026-04-27 23:42 -34.77782 -58.78391 4567 ft 187 kts 103°
2026-04-27 23:42 -34.78053 -58.76883 4423 ft 177 kts 103°
2026-04-27 23:43 -34.78304 -58.75436 4188 ft 176 kts 101°
2026-04-27 23:43 -34.78535 -58.73917 3487 ft 198 kts 101°
2026-04-27 23:43 -34.78759 -58.72231 2983 ft 203 kts 99°
2026-04-27 23:43 -34.78988 -58.70533 2428 ft 202 kts 102°
2026-04-27 23:44 -34.79229 -58.68845 1866 ft 200 kts 101°
2026-04-27 23:44 -34.79479 -58.67279 1759 ft 174 kts 106°
2026-04-27 23:44 -34.79768 -58.65934 1803 ft 156 kts 107°
2026-04-27 23:44 -34.80039 -58.64702 1834 ft 148 kts 107°
2026-04-27 23:45 -34.80346 -58.63424 1483 ft 162 kts 110°
2026-04-27 23:45 -34.80662 -58.62101 1225 ft 161 kts 106°
2026-04-27 23:45 -34.80890 -58.60793 1020 ft 158 kts 102°
2026-04-27 23:45 -34.81112 -58.59488 755 ft 157 kts 104°
2026-04-27 23:46 -34.81366 -58.58245 651 ft 146 kts 104°
2026-04-27 23:46 -34.81593 -58.57040 389 ft 147 kts 100°
2026-04-27 23:46 -34.81804 -58.55838 220 ft 142 kts 102°
2026-04-27 23:46 -34.82010 -58.54678 87 ft 136 kts 101°
2026-04-27 23:47 -34.82150 -58.53829 87 ft 55 kts 96°
2026-04-27 23:47 -34.82188 -58.53621 91 ft 21 kts 109°
2026-04-27 23:47 -34.82251 -58.53360 89 ft 51 kts 105°
2026-04-27 23:47 -34.82322 -58.53026 89 ft 22 kts 103°
2026-04-27 23:48 -34.82329 -58.52939 92 ft 9 kts 81°
2026-04-27 23:48 -34.82289 -58.52904 89 ft 8 kts 11°
2026-04-27 23:48 -34.82213 -58.52914 89 ft 14 kts 345°
2026-04-27 23:48 -34.82110 -58.52951 91 ft 17 kts 343°
2026-04-27 23:49 -34.81989 -58.52994 88 ft 19 kts 343°
2026-04-27 23:49 -34.81857 -58.53041 89 ft 21 kts 343°
2026-04-27 23:49 -34.81710 -58.53091 88 ft 23 kts 345°
2026-04-27 23:49 -34.81584 -58.53151 91 ft 15 kts 320°
2026-04-27 23:50 -34.81509 -58.53259 88 ft 19 kts 306°
2026-04-27 23:50 -34.81444 -58.53401 85 ft 20 kts 298°
2026-04-27 23:50 -34.81379 -58.53544 83 ft 15 kts 300°
2026-04-27 23:50 -34.81306 -58.53638 86 ft 14 kts 295°
2026-04-27 23:51 -34.81300 -58.53666 85 ft 0 kts 266°